KIRARI (OICETS)         
1 28809U 05031A   19258.15846220  .00000636  00000-0  55934-4 0  9994
2 28809  97.9429 357.6420 0014898 103.5493 256.7391 15.00137200767058
REIMEI (INDEX)          
1 28810U 05031B   19258.80518140  .00000176  00000-0  24226-4 0  9994
2 28810  98.1782 276.6762 0028439  18.5358 341.6888 14.90415285762291
SL-24 R/B               
1 28811U 05031C   19257.87852329 -.00000291  00000-0 -79891-4 0  9999
2 28811  97.7695 231.8412 0410694 238.9336 117.0915 13.99993403718307
SL-24 DEB               
1 28812U 05031D   19257.89726616 -.00000048  00000-0  13707-5 0  9995
2 28812  98.0565   1.2994 0009244 250.7413 223.6214 15.02724052766009
SL-24 DEB               
1 28813U 05031E   19257.95388500  .00000723  00000-0  42298-4 0  9994
2 28813  98.0628  56.2933 0014637  95.0860  20.3078 15.15306686770638